Location: Lalanga
(4.5882°N, 32.9072°E)
Time: 01:09:01
(UTC+00:00)

Cosmos 1844 Rocket - Pass Details

Date: 24 January 2020
Orbit: 824 x 845 km, 71.0° (Epoch: 19 February)

Event Time Altitude Azimuth Distance (km) Brightness Sun altitude
Rises 17:51:45 0° 195° (SSW) 3,356 6.3 -27.8°
Reaches altitude 10° 17:54:11 10° 195° (SSW) 2,421 5.5 -28.3°
Enters shadow 17:58:50 64° 193° (SSW) 906 2.8 -29.4°
